This demonstration page uses our WeatherBlox Daily Observations layout. Learn more.

Left ArrowRight Arrow

34.02893, -84.19858

Hourly Observations for October 25, 2019

Temp ( °F °C ) Dew Point ( °F °C ) Humidity (%) Winds ( mph kmh ) Pressure ( in mb ) Visibility ( mi km ) Precip ( " mm )
12:53 am 00:53 Mostly Clear 60 15.6 45 7.2 58 58 VRB 5 7 30.22 1023 10 16 0.00 0.00
1:53 am 01:53 Cloudy 60 15.6 44 6.7 56 56 E 5 7 30.21 1023 10 16 0.00 0.00
2:09 am 02:09 Cloudy 60 15.6 45 7.2 58 58 ENE 5 7 30.24 1024 10 16 0.00 0.00
2:53 am 02:53 Cloudy 61 16.1 44 6.7 54 54 VRB 3 6 30.22 1023 10 16 0.00 0.00
3:53 am 03:53 Cloudy 60 15.6 45 7.2 58 58 E 3 6 30.19 1023 10 16 0.00 0.00
4:50 am 04:50 Cloudy 61 16 46 8 59 59 VRB 5 7 30.21 1023 10 16 0.00 0.00
4:53 am 04:53 Cloudy 60 15.6 46 7.8 60 60 VRB 3 6 30.19 1023 10 16 0.00 0.00
5:53 am 05:53 Cloudy 60 15.6 47 8.3 62 62 Calm 30.21 1023 10 16 0.00 0.00
6:53 am 06:53 Cloudy 60 15.6 48 8.9 65 65 VRB 3 6 30.19 1022 10 16 0.00 0.00
7:53 am 07:53 Cloudy 60 15.6 48 8.9 65 65 VRB 5 7 30.20 1023 10 16 0.00 0.00
8:12 am 08:12 Cloudy 60 15.6 49 9.4 67 67 VRB 7 11 30.21 1023 10 16 0.00 0.00
8:53 am 08:53 Cloudy 60 15.6 50 10 70 70 VRB 7 11 30.20 1023 10 16 0.00 0.00
9:38 am 09:38 Cloudy 61 16.1 50 10 67 67 VRB 5 7 30.21 1023 10 16 0.00 0.00
9:53 am 09:53 Cloudy 61 16.1 50 10 67 67 VRB 7 11 30.21 1023 10 16 0.00 0.00
10:24 am 10:24 Cloudy 61 16.1 51 10.6 70 70 VRB 3 6 30.21 1023 10 16 0.00 0.00
10:31 am 10:31 Cloudy 62 16.7 51 10.6 67 67 VRB 7 11 30.21 1023 10 16 0.00 0.00
10:53 am 10:53 Cloudy 63 17.2 52 11.1 68 68 VRB 6 9 30.19 1022 10 16 0.00 0.00
11:00 am 11:00 Cloudy 64 17.8 53 11.7 68 68 VRB 7 11 30.21 1023 10 16 0.00 0.00
11:53 am 11:53 Cloudy 64 17.8 55 12.8 73 73 VRB 6 9 30.17 1022 10 16 0.00 0.00
12:01 pm 12:01 Cloudy 65 18.3 55 12.8 70 70 VRB 6 9 30.15 1021 10 16 0.00 0.00
12:53 pm 12:53 Cloudy 65 18.3 56 13.3 73 73 VRB 5 7 30.15 1021 10 16 0.00 0.00
1:53 pm 13:53 Cloudy 67 19.4 59 15 76 76 ESE 10 17 30.11 1020 10 16 0.00 0.00
2:10 pm 14:10 Cloudy 67 19.4 59 15 76 76 VRB 7 11 30.09 1019 10 16 0.00 0.00
2:53 pm 14:53 Cloudy 67 19.4 60 15.6 79 79 VRB 5 7 30.09 1019 10 16 0.00 0.00
3:53 pm 15:53 Cloudy 68 20 60 15.6 76 76 VRB 6 9 30.07 1018 10 16 0.00 0.00
4:53 pm 16:53 Mostly Cloudy 68 20 61 16.1 78 78 E 5 7 30.07 1018 10 16 0.00 0.00
5:20 pm 17:20 Cloudy 67 19.4 61 16.1 81 81 Calm 30.06 1018 10 16 0.00 0.00
5:53 pm 17:53 Cloudy 67 19.4 61 16.1 81 81 VRB 3 6 30.08 1019 10 16 0.00 0.00
6:53 pm 18:53 Cloudy 66 18.9 60 15.6 81 81 VRB 3 6 30.08 1019 10 16 0.00 0.00
7:09 pm 19:09 Cloudy 66 18.9 60 15.6 81 81 VRB 6 9 30.06 1018 10 16 0.00 0.00
7:17 pm 19:17 Cloudy 66 18.9 60 15.6 81 81 VRB 7 11 30.06 1018 10 16 0.00 0.00
7:53 pm 19:53 Mostly Cloudy 66 18.9 60 15.6 81 81 VRB 6 9 30.08 1019 10 16 0.00 0.00
8:53 pm 20:53 Cloudy 66 18.9 61 16.1 84 84 VRB 5 7 30.08 1019 10 16 0.00 0.00
9:53 pm 21:53 Cloudy 66 18.9 61 16.1 84 84 VRB 3 6 30.08 1019 10 16 0.00 0.00
10:53 pm 22:53 Cloudy with Light Rain 64 17.8 63 17.2 96 96 VRB 6 9 30.09 1019 4 6 0.03 0.76
11:04 pm 23:04 Cloudy with Light Rain 64 17.8 63 17.2 96 96 VRB 5 7 30.09 1019 5 8 0.00 0.00
11:12 pm 23:12 Cloudy with Light Rain 64 17.8 64 17.8 100 100 VRB 5 7 30.09 1019 7 11 0.00 0.00
11:16 pm 23:16 Cloudy with Light Rain 64 17.8 63 17.2 96 96 VRB 5 7 30.09 1019 6 10 0.00 0.00
11:53 pm 23:53 Cloudy 65 18.3 64 17.8 97 97 VRB 5 7 30.08 1019 9 14 0.01 0.25

Powered by AerisWeather